TimeCST,TemperatureF,Dew PointF,Humidity,Sea Level PressureIn,VisibilityMPH,Wind Direction,Wind SpeedMPH,Gust SpeedMPH,PrecipitationIn,Events,Conditions,WindDirDegrees,DateUTC
12:05 AM,10.4,10.4,100,30.07,10.0,North,8.1,-,N/A,Snow,Light Snow,10,2014-02-16 06:05:00
12:25 AM,10.4,10.4,100,30.08,10.0,NNE,6.9,-,N/A,Snow,Light Snow,30,2014-02-16 06:25:00
12:45 AM,10.4,10.4,100,30.09,10.0,NNW,8.1,-,N/A,,Overcast,330,2014-02-16 06:45:00
1:05 AM,8.6,8.6,100,30.09,10.0,North,10.4,-,N/A,Snow,Light Snow,350,2014-02-16 07:05:00
1:25 AM,8.6,8.6,100,30.08,10.0,NNE,11.5,-,N/A,,Overcast,20,2014-02-16 07:25:00
1:45 AM,5.0,5.0,100,30.08,10.0,North,8.1,-,N/A,,Overcast,10,2014-02-16 07:45:00
2:05 AM,5.0,5.0,100,30.07,10.0,NE,8.1,-,N/A,,Scattered Clouds,40,2014-02-16 08:05:00
2:25 AM,1.4,1.4,100,30.08,10.0,North,-9999.0,-,N/A,,Clear,0,2014-02-16 08:25:00
2:45 AM,1.4,1.4,100,30.07,10.0,North,-9999.0,-,N/A,,Clear,0,2014-02-16 08:45:00
3:05 AM,-0.4,-0.4,100,30.08,10.0,North,-9999.0,-,N/A,,Clear,0,2014-02-16 09:05:00
3:25 AM,-0.4,-0.4,100,30.08,10.0,NNE,4.6,-,N/A,,Clear,30,2014-02-16 09:25:00
3:45 AM,-0.4,-0.4,100,30.07,10.0,ENE,3.5,-,N/A,,Clear,70,2014-02-16 09:45:00
4:05 AM,-0.4,-0.4,100,30.08,10.0,Calm,Calm,-,N/A,,Clear,0,2014-02-16 10:05:00
4:25 AM,-0.4,-0.4,100,30.09,10.0,North,-9999.0,-,N/A,,Clear,0,2014-02-16 10:25:00
4:45 AM,-0.4,-0.4,100,30.09,10.0,SSW,3.5,-,N/A,,Clear,200,2014-02-16 10:45:00
5:05 AM,-0.4,-0.4,100,30.10,10.0,SW,5.8,-,N/A,,Clear,230,2014-02-16 11:05:00
5:25 AM,-0.4,-0.4,100,30.11,10.0,SW,6.9,-,N/A,,Clear,230,2014-02-16 11:25:00
5:45 AM,-0.4,-0.4,100,30.12,10.0,SSW,3.5,-,N/A,,Clear,210,2014-02-16 11:45:00
6:05 AM,-2.2,-2.2,100,30.12,10.0,Calm,Calm,-,N/A,,Clear,0,2014-02-16 12:05:00
6:25 AM,-2.2,-2.2,100,30.11,10.0,East,4.6,-,N/A,,Clear,100,2014-02-16 12:25:00
6:45 AM,-2.2,-2.2,100,30.11,10.0,East,6.9,-,N/A,,Clear,90,2014-02-16 12:45:00
7:05 AM,-2.2,-2.2,100,30.09,10.0,ENE,9.2,-,N/A,,Clear,70,2014-02-16 13:05:00
7:25 AM,-2.2,-2.2,100,30.09,10.0,ENE,8.1,-,N/A,,Clear,70,2014-02-16 13:25:00
7:45 AM,-0.4,-0.4,100,30.08,10.0,ENE,9.2,-,N/A,,Clear,70,2014-02-16 13:45:00
8:05 AM,1.4,1.4,100,30.07,10.0,East,10.4,-,N/A,,Scattered Clouds,80,2014-02-16 14:05:00
8:25 AM,3.2,3.2,100,30.06,10.0,East,13.8,-,N/A,,Partly Cloudy,100,2014-02-16 14:25:00
8:45 AM,5.0,5.0,100,30.08,10.0,SE,8.1,-,N/A,,Clear,130,2014-02-16 14:45:00
9:05 AM,6.8,6.8,100,30.06,10.0,SE,12.7,17.3,N/A,,Clear,140,2014-02-16 15:05:00
9:25 AM,6.8,6.8,100,30.05,10.0,SE,12.7,-,N/A,Snow,Light Snow,130,2014-02-16 15:25:00
9:45 AM,8.6,8.6,100,30.04,10.0,SE,17.3,-,N/A,Snow,Light Snow,140,2014-02-16 15:45:00
10:05 AM,8.6,8.6,100,30.04,9.0,SE,16.1,19.6,N/A,Snow,Light Snow,140,2014-02-16 16:05:00
10:25 AM,8.6,8.6,100,30.03,6.0,SE,16.1,-,N/A,Rain,Freezing Rain,140,2014-02-16 16:25:00
10:45 AM,10.4,10.4,100,30.03,9.0,SSE,15.0,21.9,N/A,Rain,Freezing Rain,150,2014-02-16 16:45:00
11:05 AM,10.4,10.4,100,30.01,10.0,SE,19.6,26.5,N/A,Rain,Freezing Rain,140,2014-02-16 17:05:00
11:25 AM,10.4,10.4,100,30.01,10.0,SE,19.6,24.2,N/A,,Mostly Cloudy,140,2014-02-16 17:25:00
11:45 AM,12.2,12.2,100,29.99,10.0,SE,17.3,25.3,N/A,,Scattered Clouds,140,2014-02-16 17:45:00
12:05 PM,14.0,14.0,100,29.99,10.0,SE,19.6,26.5,N/A,,Partly Cloudy,140,2014-02-16 18:05:00
12:25 PM,14.0,14.0,100,29.97,10.0,SSE,20.7,26.5,N/A,,Scattered Clouds,150,2014-02-16 18:25:00
12:45 PM,14.0,14.0,100,29.95,10.0,SE,18.4,25.3,N/A,,Partly Cloudy,140,2014-02-16 18:45:00
1:05 PM,14.0,14.0,100,29.93,10.0,SE,19.6,25.3,N/A,,Clear,140,2014-02-16 19:05:00
1:25 PM,15.8,15.8,100,29.91,10.0,SE,23.0,31.1,N/A,,Clear,140,2014-02-16 19:25:00
1:45 PM,15.8,15.8,100,29.90,10.0,SE,20.7,27.6,N/A,,Clear,140,2014-02-16 19:45:00
2:05 PM,17.6,17.6,100,29.89,10.0,SE,18.4,27.6,N/A,,Clear,140,2014-02-16 20:05:00
2:25 PM,17.6,17.6,100,29.86,10.0,SE,21.9,29.9,N/A,,Clear,140,2014-02-16 20:25:00
2:45 PM,17.6,17.6,100,29.84,10.0,SE,24.2,32.2,N/A,,Clear,140,2014-02-16 20:45:00
3:05 PM,19.4,19.4,100,29.83,10.0,SE,21.9,28.8,N/A,,Partly Cloudy,140,2014-02-16 21:05:00
3:25 PM,19.4,19.4,100,29.81,10.0,SE,20.7,31.1,N/A,,Partly Cloudy,140,2014-02-16 21:25:00
3:45 PM,19.4,19.4,100,29.81,10.0,SSE,20.7,29.9,N/A,,Partly Cloudy,150,2014-02-16 21:45:00
4:05 PM,21.2,21.2,100,29.81,10.0,SE,21.9,29.9,N/A,,Partly Cloudy,140,2014-02-16 22:05:00
4:25 PM,21.2,21.2,100,29.80,10.0,SE,20.7,31.1,N/A,,Scattered Clouds,140,2014-02-16 22:25:00
4:45 PM,21.2,21.2,100,29.79,10.0,SE,23.0,33.4,N/A,,Partly Cloudy,140,2014-02-16 22:45:00
5:05 PM,23.0,23.0,100,29.78,10.0,SE,23.0,28.8,N/A,,Partly Cloudy,140,2014-02-16 23:05:00
5:25 PM,23.0,23.0,100,29.78,10.0,SSE,21.9,27.6,N/A,,Partly Cloudy,150,2014-02-16 23:25:00
5:45 PM,23.0,23.0,100,29.79,10.0,SSE,20.7,33.4,N/A,,Partly Cloudy,150,2014-02-16 23:45:00
6:05 PM,23.0,23.0,100,29.77,10.0,SSE,24.2,32.2,N/A,,Clear,150,2014-02-17 00:05:00
6:25 PM,23.0,23.0,100,29.77,10.0,SE,23.0,27.6,N/A,,Clear,140,2014-02-17 00:25:00
6:45 PM,23.0,23.0,100,29.77,10.0,SSE,19.6,27.6,N/A,,Clear,150,2014-02-17 00:45:00
7:05 PM,23.0,23.0,100,29.76,10.0,SSE,21.9,29.9,N/A,,Clear,150,2014-02-17 01:05:00
7:25 PM,23.0,23.0,100,29.74,10.0,SSE,21.9,27.6,N/A,,Clear,150,2014-02-17 01:25:00
7:45 PM,23.0,23.0,100,29.73,10.0,SSE,21.9,32.2,N/A,,Mostly Cloudy,160,2014-02-17 01:45:00
8:05 PM,24.8,24.8,100,29.72,10.0,SSE,24.2,31.1,N/A,,Mostly Cloudy,160,2014-02-17 02:05:00
8:25 PM,23.0,23.0,100,29.71,10.0,SSE,20.7,32.2,N/A,,Partly Cloudy,160,2014-02-17 02:25:00
8:45 PM,23.0,23.0,100,29.69,10.0,South,25.3,32.2,N/A,,Scattered Clouds,170,2014-02-17 02:45:00
9:05 PM,23.0,23.0,100,29.69,10.0,SSE,23.0,32.2,N/A,,Mostly Cloudy,160,2014-02-17 03:05:00
9:25 PM,23.0,23.0,100,29.68,10.0,South,25.3,34.5,N/A,,Mostly Cloudy,170,2014-02-17 03:25:00
9:45 PM,23.0,23.0,100,29.66,10.0,South,26.5,33.4,N/A,,Scattered Clouds,170,2014-02-17 03:45:00
10:05 PM,23.0,23.0,100,29.65,10.0,South,27.6,36.8,N/A,,Scattered Clouds,170,2014-02-17 04:05:00
10:25 PM,24.8,24.8,100,29.65,10.0,South,25.3,34.5,N/A,,Mostly Cloudy,170,2014-02-17 04:25:00
10:45 PM,24.8,24.8,100,29.65,10.0,South,24.2,39.1,N/A,,Overcast,170,2014-02-17 04:45:00
11:05 PM,24.8,24.8,100,29.64,10.0,South,27.6,36.8,N/A,,Overcast,170,2014-02-17 05:05:00
11:25 PM,24.8,24.8,100,29.64,10.0,South,28.8,40.3,N/A,,Overcast,170,2014-02-17 05:25:00
11:45 PM,24.8,24.8,100,29.63,10.0,South,23.0,34.5,N/A,,Mostly Cloudy,170,2014-02-17 05:45:00